WGS F2 (USA 204)

Last updated on Thu Jul 03 2025 00:02:45 GMT+0000 (Coordinated Universal Time)

1 34713U 09017A 25183.50663900 .00000075 00000+0 00000+0 0 9993 2 34713 0.0132 16.5536 0000230 152.4709 351.6575 1.00271644 42110
UTC large
Height (km)
Speed (km/s)
/
Latitude / Longitude
Inclination (degrees)
Orbital Period (minutes)
Azimuth
Elevation
Range (km)
Doppler Factor

Next 0 passes for location: London (51.5072 / 0.1276)

Sorry there are no passes over London.